Wind_Speed
6 7 7 7 7 6 6 7 8 8 8 9 9 9 10 10 11 11 11 11 11 11 11 10 10 10 9 9 8 8 7 7 6 5 4 4 3 3 2 2 2 2 3
7 6 7 7 6 7 7 7 8 8 9 10 10 10 11 11 11 11 11 11 11 11 10 10 10 9 9 8 8 7 7 6 6 5 4 4 3 3 2 2 2 3 3
7 6 6 6 6 7 8 8 8 9 10 10 10 10 11 12 11 11 11 11 11 10 10 10 9 8 9 8 7 7 6 6 5 5 4 4 3 2 2 2 3 3 3
7 7 7 6 6 7 8 9 9 10 10 10 10 11 11 11 10 10 10 10 10 9 9 9 8 8 7 7 6 6 6 6 5 5 4 4 3 3 2 2 3 3 3
8 8 7 7 7 7 8 9 9 10 10 10 9 9 10 9 9 9 9 9 9 9 9 8 8 8 6 6 5 5 5 5 5 5 4 4 3 3 3 3 3 4 4
8 7 7 8 7 7 8 8 8 8 9 9 8 7 8 7 8 9 9 8 7 7 6 6 7 7 6 6 5 5 5 5 4 4 4 4 3 3 3 4 4 4 5
8 7 7 8 7 7 7 7 8 8 7 7 8 7 7 7 7 7 7 7 7 6 6 6 7 8 6 6 6 5 5 5 5 4 3 4 4 3 4 4 4 4 4
7 7 7 7 7 7 7 8 7 7 7 7 7 7 6 6 6 7 7 7 7 6 6 6 7 6 5 6 6 6 6 5 5 5 4 4 4 4 5 4 4 4 5
8 8 8 7 7 7 7 7 7 7 7 7 7 6 6 6 6 6 6 6 6 5 5 5 5 5 5 5 5 5 6 6 6 5 5 4 4 4 4 4 4 5 5
8 8 8 7 7 6 6 6 7 7 7 7 7 6 6 6 6 5 6 6 5 4 4 4 4 4 5 6 5 5 6 6 7 6 5 5 5 4 4 4 4 5 6
8 7 7 7 7 7 6 6 6 7 7 6 6 5 5 5 5 4 4 5 5 4 4 3 3 3 4 5 5 5 6 6 7 6 6 6 5 5 5 5 5 5 6
8 8 8 7 7 6 7 7 7 6 6 6 5 5 5 5 4 4 3 3 4 4 4 3 3 4 3 4 5 6 6 7 7 7 7 7 6 6 6 6 6 6 6
7 7 7 7 7 7 6 6 6 5 5 5 5 6 5 3 3 3 2 3 3 3 4 3 3 4 4 4 5 6 7 8 9 8 8 8 7 7 7 7 7 7 6
7 7 7 6 6 6 6 5 6 6 5 5 5 5 4 4 3 3 2 3 3 3 4 3 3 3 4 4 6 6 7 8 9 9 8 8 8 9 8 8 9 8 8
7 7 6 6 5 5 5 6 5 4 4 4 4 4 4 4 4 3 3 3 2 3 3 3 3 4 4 5 6 7 7 8 8 8 8 8 9 9 9 9 9 9 9
6 6 6 5 5 5 5 5 5 4 4 3 3 3 3 4 3 3 2 2 3 3 3 3 4 4 5 5 5 6 7 7 7 7 8 9 9 9 10 9 9 10 10
5 5 5 5 5 5 4 4 4 4 3 3 3 3 3 3 3 2 2 2 3 3 3 3 3 4 4 5 5 6 6 6 7 7 8 9 9 9 9 9 10 10 10
5 4 4 4 4 4 4 4 4 3 3 2 2 3 3 3 2 2 2 2 2 3 3 3 3 3 3 4 5 5 5 5 6 7 8 8 9 10 10 10 10 11 11
6 5 4 4 4 4 4 4 3 3 3 2 2 3 3 2 1 0 1 2 2 3 3 3 4 4 4 4 5 5 5 5 6 7 8 9 10 9 9 10 11 11 11
6 5 3 3 4 4 4 4 3 3 2 2 1 2 2 1 1 1 2 2 3 3 4 4 5 5 5 5 6 6 6 6 7 8 8 9 10 10 10 11 12 12 12
6 5 4 3 3 4 4 4 3 3 2 1 1 1 2 1 1 2 2 3 3 4 4 5 6 6 6 6 6 6 7 8 8 9 9 10 10 10 11 12 12 12 12
6 5 5 4 4 4 4 4 4 3 2 1 1 1 2 2 2 2 3 3 4 5 5 6 6 6 7 7 7 7 8 9 9 9 10 10 10 11 12 12 12 12 13
5 5 5 4 4 3 4 4 4 3 3 3 2 1 2 3 3 3 3 4 4 5 6 6 7 7 7 8 8 8 8 9 9 9 10 11 11 11 12 13 13 14 14
5 5 5 4 4 3 3 4 4 4 4 4 3 2 2 3 3 4 3 4 5 5 6 7 7 8 8 9 9 9 9 9 9 10 10 11 11 11 12 13 14 14 15
5 5 4 4 4 4 3 3 4 4 4 4 4 3 3 4 4 4 5 5 5 6 7 7 8 8 9 9 10 11 11 11 10 10 11 11 11 12 13 13 14 14 15
5 5 5 4 5 5 5 4 4 5 5 5 5 5 5 5 5 5 6 6 6 7 8 9 9 10 10 11 11 11 12 11 11 11 11 12 13 13 14 14 14 15 16
Wind_Direction
126 129 134 136 133 134 136 130 126 126 131 129 127 137 140 137 138 141 142 140 141 141 146 148 150 154 156 158 158 154 153 152 151 153 152 149 141 133 132 131 137 132 105
125 133 131 135 136 134 140 133 130 129 130 129 127 135 139 138 139 141 140 142 144 145 149 152 154 158 155 156 154 151 156 154 154 154 151 149 146 135 132 133 131 143 128
122 126 129 130 132 130 130 126 127 134 135 130 132 138 138 139 142 143 142 143 144 148 151 153 156 158 155 155 154 154 163 160 164 165 160 162 155 146 139 144 146 149 145
119 119 122 128 133 132 131 133 132 134 139 136 136 138 137 140 145 146 144 141 145 148 154 154 157 155 155 153 153 158 170 168 173 182 174 170 168 171 170 161 164 163 164
115 117 122 127 129 129 128 132 136 138 138 134 133 137 136 138 141 144 147 146 150 154 156 158 161 162 160 154 155 163 176 175 182 187 186 183 186 198 202 195 189 181 179
112 118 123 126 128 134 135 135 137 134 133 133 136 134 134 135 144 145 142 145 151 154 152 154 165 167 166 166 174 178 179 182 189 198 204 195 191 196 202 203 195 186 187
114 121 127 127 129 130 133 135 140 143 142 139 136 134 134 134 140 145 142 147 151 149 153 158 166 174 175 179 181 185 190 197 205 212 209 202 197 185 184 194 195 194 188
111 119 130 129 129 130 132 135 139 143 142 141 139 136 134 134 135 144 145 149 152 151 153 156 158 160 172 178 183 191 194 200 205 209 210 203 204 199 199 204 212 215 216
108 117 126 130 128 130 131 134 138 140 143 141 140 139 140 138 140 144 151 147 153 160 163 165 163 172 180 188 196 204 206 204 211 207 207 214 221 223 220 224 230 228 223
111 118 123 127 127 127 130 133 135 139 141 142 141 140 144 146 147 148 148 147 150 163 172 172 176 189 196 203 211 221 223 222 225 216 221 228 232 233 229 236 246 244 231
106 112 118 119 123 125 127 129 132 136 138 140 142 143 143 148 148 151 155 158 164 173 179 182 197 211 214 221 224 232 229 231 229 231 235 235 240 243 249 246 253 251 240
103 103 107 110 115 118 123 126 129 138 144 146 144 151 151 150 158 168 173 176 182 190 199 206 225 230 232 241 233 233 236 240 245 248 244 243 244 250 250 248 253 253 241
101 102 104 106 107 113 121 123 121 127 136 139 145 155 156 153 169 178 194 193 193 202 213 220 232 230 234 245 243 242 246 243 250 250 246 246 246 251 248 248 254 251 239
98 99 100 104 105 108 113 117 118 122 125 124 136 148 159 164 170 178 199 197 201 216 233 238 236 241 248 254 256 254 253 248 246 247 245 244 248 250 250 249 252 252 244
91 96 99 103 99 102 101 99 96 101 117 132 139 148 155 164 173 182 194 202 215 226 244 250 249 264 265 267 267 266 261 255 248 242 243 245 250 251 253 254 251 254 254
84 90 93 94 92 94 91 85 82 92 109 128 142 151 159 167 175 178 182 208 227 239 250 252 265 268 265 269 271 270 264 257 249 250 250 252 261 262 256 257 256 255 258
74 79 91 94 93 92 83 77 78 88 96 115 133 141 150 160 171 181 199 220 235 246 258 255 268 272 272 272 278 279 269 261 256 255 254 256 265 266 263 261 260 261 261
65 72 81 92 89 83 75 75 80 83 88 105 125 138 145 152 159 176 210 232 243 251 265 274 278 279 284 281 279 286 279 267 263 261 256 258 263 267 267 262 264 264 265
57 68 78 83 78 72 67 64 72 77 78 84 107 145 151 152 158 235 270 267 261 260 271 282 286 283 287 291 287 290 283 276 270 264 261 261 263 266 266 265 266 268 269
40 49 62 75 68 66 57 52 60 77 77 78 105 163 166 164 236 288 295 280 266 269 277 286 292 294 292 292 291 292 288 284 279 270 271 269 269 270 269 269 271 269 269
30 35 43 57 60 55 46 44 47 58 53 52 79 176 192 222 259 287 286 283 275 275 281 286 290 290 290 293 292 293 293 292 288 278 276 276 274 277 275 276 277 276 274
26 35 33 36 42 45 37 36 37 39 36 19 308 250 235 252 262 265 271 277 283 284 285 284 288 289 288 288 291 291 296 298 293 285 282 278 275 279 278 279 279 280 280
15 22 25 25 29 27 28 29 27 25 21 13 343 316 269 261 269 283 283 282 288 289 289 287 282 283 291 286 286 291 297 297 294 290 289 285 284 283 284 283 279 278 280
355 2 6 8 5 10 12 9 9 7 2 358 356 327 289 286 292 289 300 302 300 301 302 299 290 287 287 287 288 287 291 293 293 292 289 288 286 284 287 285 282 279 280
341 345 350 350 347 343 335 340 348 349 344 343 342 332 319 315 308 304 302 305 306 303 302 301 297 292 289 286 287 288 291 289 289 290 290 290 288 288 289 289 289 286 285
331 336 335 332 330 324 318 318 324 327 324 322 322 318 314 309 309 313 314 306 304 302 298 297 296 293 291 290 290 292 292 290 286 284 287 289 291 291 291 291 290 289 289
Height
5876 5876 5876 5876 5876 5876 5876 5877 5877 5877 5878 5878 5878 5878 5878 5879 5879 5880 5881 5882 5884 5885 5886 5887 5888 5890 5891 5892 5893 5894 5895 5896 5896 5897 5898 5898 5898 5899 5899 5899 5899 5899 5899
5876 5876 5876 5877 5877 5876 5877 5877 5877 5878 5878 5879 5879 5879 5879 5880 5881 5881 5882 5883 5885 5886 5887 5888 5889 5890 5891 5893 5894 5895 5896 5896 5897 5898 5898 5898 5899 5899 5899 5899 5899 5899 5900
5877 5877 5877 5878 5878 5877 5877 5878 5878 5878 5879 5880 5880 5881 5881 5881 5882 5883 5884 5884 5886 5887 5888 5889 5890 5890 5892 5893 5895 5896 5896 5897 5897 5898 5898 5898 5899 5899 5899 5900 5899 5900 5900
5878 5878 5878 5879 5879 5878 5878 5878 5879 5879 5880 5881 5882 5882 5882 5883 5883 5884 5885 5885 5886 5887 5888 5889 5890 5891 5893 5894 5895 5896 5897 5897 5898 5898 5899 5899 5899 5900 5900 5900 5900 5900 5900
5879 5879 5879 5880 5880 5880 5879 5880 5880 5881 5881 5882 5883 5883 5883 5884 5884 5885 5885 5886 5888 5888 5889 5890 5890 5892 5893 5894 5895 5896 5897 5897 5898 5898 5898 5899 5899 5900 5900 5900 5900 5900 5901
5880 5880 5880 5881 5881 5881 5881 5881 5882 5882 5883 5883 5884 5885 5885 5885 5886 5886 5887 5888 5889 5889 5890 5890 5890 5891 5893 5894 5895 5896 5897 5897 5898 5898 5898 5899 5899 5900 5900 5900 5901 5901 5901
5881 5881 5882 5882 5882 5882 5882 5883 5883 5884 5884 5885 5885 5886 5886 5887 5887 5888 5888 5889 5889 5890 5890 5890 5890 5892 5893 5894 5895 5896 5897 5897 5898 5898 5899 5899 5900 5900 5900 5900 5900 5901 5901
5882 5882 5883 5883 5884 5884 5884 5884 5885 5885 5886 5886 5886 5887 5888 5888 5888 5889 5889 5890 5890 5891 5891 5891 5892 5892 5894 5894 5895 5896 5897 5897 5898 5898 5899 5899 5900 5900 5900 5900 5900 5901 5901
5884 5884 5884 5885 5885 5885 5885 5885 5886 5886 5886 5887 5887 5888 5888 5889 5889 5890 5890 5891 5891 5892 5892 5892 5893 5893 5894 5894 5895 5896 5896 5897 5897 5898 5898 5899 5900 5900 5900 5900 5900 5900 5901
5886 5886 5886 5886 5886 5886 5886 5886 5887 5887 5887 5888 5888 5889 5889 5890 5890 5890 5891 5891 5892 5892 5893 5893 5894 5894 5894 5894 5895 5896 5896 5896 5896 5897 5898 5899 5899 5900 5900 5899 5899 5899 5900
5887 5887 5887 5887 5887 5887 5887 5887 5888 5888 5888 5889 5889 5889 5890 5890 5891 5891 5892 5892 5893 5893 5893 5894 5894 5894 5894 5894 5894 5895 5895 5896 5896 5897 5897 5898 5899 5899 5899 5899 5899 5899 5898
5889 5889 5888 5888 5888 5888 5888 5888 5889 5889 5889 5889 5889 5889 5890 5891 5891 5892 5892 5893 5893 5893 5893 5893 5894 5894 5894 5894 5894 5895 5895 5895 5895 5896 5896 5897 5898 5898 5898 5898 5898 5898 5898
5890 5890 5890 5890 5890 5890 5890 5889 5889 5889 5889 5890 5890 5890 5890 5891 5892 5892 5893 5893 5893 5893 5893 5893 5893 5894 5894 5894 5893 5894 5894 5894 5894 5895 5895 5896 5897 5897 5897 5897 5897 5897 5897
5892 5892 5891 5891 5891 5891 5891 5890 5890 5890 5890 5890 5890 5891 5891 5892 5892 5893 5893 5893 5893 5893 5893 5893 5893 5893 5893 5893 5893 5892 5892 5892 5893 5893 5894 5895 5895 5896 5896 5896 5896 5895 5895
5894 5893 5893 5893 5892 5892 5891 5891 5890 5890 5890 5890 5890 5891 5891 5892 5892 5892 5892 5892 5892 5893 5892 5892 5892 5892 5892 5892 5892 5891 5890 5890 5890 5891 5892 5893 5894 5894 5894 5894 5894 5894 5895
5895 5895 5894 5894 5893 5893 5892 5891 5890 5889 5889 5889 5890 5891 5891 5892 5892 5892 5892 5892 5892 5892 5892 5892 5892 5892 5891 5891 5891 5890 5889 5888 5888 5890 5890 5891 5892 5892 5892 5893 5893 5893 5893
5896 5896 5896 5895 5894 5894 5893 5892 5891 5890 5889 5889 5889 5890 5891 5891 5892 5892 5892 5892 5892 5892 5892 5892 5891 5891 5891 5890 5890 5889 5888 5887 5887 5888 5889 5890 5891 5891 5891 5891 5891 5891 5891
5898 5897 5896 5896 5895 5894 5894 5893 5891 5890 5890 5889 5890 5890 5891 5891 5892 5892 5892 5892 5892 5892 5891 5891 5891 5890 5890 5890 5889 5889 5887 5887 5887 5888 5888 5889 5889 5889 5889 5889 5889 5889 5889
5899 5898 5897 5896 5896 5895 5894 5894 5892 5891 5891 5890 5890 5891 5891 5891 5892 5892 5892 5892 5891 5891 5891 5891 5891 5890 5890 5889 5889 5888 5887 5887 5887 5887 5887 5887 5887 5887 5887 5887 5887 5887 5887
5900 5899 5898 5897 5896 5896 5895 5894 5893 5892 5892 5892 5891 5891 5891 5891 5891 5891 5891 5891 5891 5891 5891 5890 5890 5890 5889 5889 5888 5887 5887 5886 5886 5886 5886 5886 5886 5886 5886 5885 5885 5885 5885
5901 5900 5899 5898 5897 5897 5896 5895 5894 5893 5893 5893 5892 5892 5892 5892 5891 5891 5891 5890 5890 5890 5890 5889 5889 5889 5888 5888 5887 5886 5886 5885 5885 5884 5884 5884 5884 5884 5883 5883 5883 5882 5882
5902 5901 5900 5899 5898 5897 5897 5896 5895 5894 5893 5893 5893 5893 5892 5892 5891 5890 5890 5890 5889 5889 5888 5888 5888 5887 5887 5886 5886 5885 5885 5885 5883 5883 5882 5882 5882 5881 5881 5881 5881 5880 5880
5902 5901 5901 5900 5899 5898 5897 5897 5896 5895 5894 5893 5893 5893 5892 5892 5891 5890 5890 5889 5889 5888 5887 5887 5887 5886 5886 5885 5884 5884 5883 5882 5882 5881 5881 5880 5879 5879 5879 5878 5878 5877 5877
5903 5902 5901 5900 5899 5899 5898 5897 5896 5895 5894 5894 5893 5892 5892 5891 5891 5890 5889 5888 5888 5887 5886 5885 5885 5884 5884 5883 5883 5882 5881 5880 5880 5879 5879 5878 5877 5876 5876 5875 5875 5874 5873
5903 5902 5901 5901 5900 5899 5898 5897 5896 5895 5894 5894 5893 5892 5892 5891 5890 5889 5888 5887 5887 5886 5885 5884 5883 5883 5882 5882 5881 5880 5879 5878 5877 5877 5876 5875 5875 5874 5873 5872 5871 5870 5869
5903 5902 5902 5901 5900 5899 5898 5897 5896 5895 5894 5893 5893 5892 5891 5890 5890 5889 5888 5887 5886 5885 5884 5883 5882 5881 5880 5880 5879 5878 5877 5876 5875 5874 5873 5872 5871 5871 5870 5869 5868 5867 5866